Dewpoint
47 48 49 51 53 53 54 55 55 55 56 57 58 59 61 63 64 65 66 67 67 67 69 70 70 71 71 71 71 71 71 71 71 71 71 71 71 71 71 71 71 72 73 73 73 73 73 74 73 74 73 72 72 71 70 70 68 68 66 65 64 64 63
47 47 48 50 52 53 54 55 55 55 56 57 58 59 60 63 64 65 66 66 67 67 68 69 70 71 71 71 71 71 71 71 71 71 71 71 71 71 71 71 71 72 73 73 73 73 73 73 73 73 72 72 71 70 70 69 68 67 66 65 64 63 64
47 47 48 49 51 52 54 55 55 55 55 56 57 58 60 62 64 65 66 66 67 67 68 69 70 70 71 71 71 71 71 71 71 71 71 71 71 70 71 71 71 71 72 72 73 73 73 72 73 73 72 71 70 70 69 69 68 67 66 65 64 64 64
48 47 48 49 51 52 53 54 55 55 55 55 56 58 59 61 63 65 66 66 66 67 67 68 70 70 71 71 71 71 71 71 71 71 71 71 71 71 71 71 71 71 71 72 72 72 72 72 72 72 73 71 70 69 68 68 67 67 66 65 65 64 64
48 48 48 49 50 51 53 54 55 55 55 55 56 59 59 60 63 65 66 66 66 67 68 68 69 70 71 71 71 71 71 71 71 71 71 71 71 72 71 71 71 71 71 71 71 72 72 71 71 71 71 71 70 69 68 66 66 67 66 65 65 64 64
48 49 49 49 49 51 52 53 54 55 55 55 56 57 59 60 62 64 65 66 67 67 68 68 69 69 70 71 71 71 71 71 71 71 71 71 71 71 71 71 71 71 70 71 71 71 71 71 71 71 70 70 69 68 67 66 65 66 66 65 64 64 64
48 49 50 50 50 50 51 52 53 55 55 56 56 58 59 59 61 63 65 66 67 67 67 68 69 69 70 70 71 71 71 71 72 71 72 71 71 71 72 72 71 71 71 71 71 71 70 70 70 70 70 70 69 68 67 66 64 65 66 65 64 64 64
47 49 50 50 50 50 51 52 53 54 56 56 56 57 59 60 61 62 64 65 67 67 67 68 69 70 70 70 70 71 71 71 72 72 72 72 72 72 72 72 72 71 71 70 70 70 70 70 70 70 69 69 68 68 67 66 65 64 65 65 64 64 64
46 48 50 50 50 51 51 52 53 53 55 56 56 58 59 60 60 62 63 65 66 67 68 68 69 70 71 71 71 71 71 71 71 72 72 72 72 72 72 72 72 72 71 70 70 70 70 70 70 69 69 68 68 67 67 66 65 64 64 64 64 64 64
46 48 50 51 51 51 51 52 54 54 55 57 57 58 60 61 61 62 63 64 66 67 68 68 69 70 71 71 71 71 71 71 71 72 72 72 72 72 72 72 72 72 72 71 70 70 70 70 69 69 68 67 67 67 66 66 66 65 64 64 64 64 64
46 48 50 51 51 52 52 52 54 55 56 57 58 58 60 61 61 62 63 64 65 66 68 68 69 70 70 71 71 71 71 71 71 71 72 72 72 72 72 72 72 72 72 71 70 70 70 70 70 69 68 68 67 66 66 66 65 65 65 64 64 63 63
48 49 50 51 51 52 52 53 55 56 57 58 58 58 60 61 62 62 63 64 65 66 67 68 69 70 70 71 71 71 71 71 71 71 71 72 72 72 72 72 72 72 72 71 71 70 70 69 69 69 68 68 67 66 66 66 65 65 65 65 64 64 63
46 48 50 49 51 51 52 55 55 56 57 58 58 59 60 61 62 63 64 64 65 66 67 68 69 70 70 71 71 71 71 72 72 72 72 72 72 72 72 72 72 72 72 72 71 70 69 69 69 69 69 68 68 67 66 66 65 65 65 65 65 64 63
53 47 49 49 50 51 52 54 56 57 58 58 59 59 60 62 62 63 64 64 65 66 67 68 69 70 70 71 71 71 71 72 72 72 72 72 72 72 72 72 72 72 72 72 71 70 70 69 69 69 69 68 68 67 67 66 66 65 65 65 65 65 64
47 47 48 49 51 52 52 53 56 57 58 58 59 59 60 62 62 63 64 64 66 66 67 69 70 70 70 71 71 71 71 72 72 72 73 73 72 72 72 72 72 73 72 72 71 71 70 70 69 68 68 68 68 67 67 66 66 66 65 65 65 65 64
47 47 48 49 51 52 53 53 55 57 58 59 59 60 60 62 63 64 64 65 66 67 68 69 70 70 71 71 71 71 72 72 72 72 73 73 72 72 72 72 72 72 72 72 72 71 71 70 69 68 68 68 68 67 67 67 66 65 62 63 65 65 65
48 48 48 49 50 51 52 53 54 56 58 59 60 60 60 62 63 64 64 65 66 67 68 69 70 71 71 71 71 72 72 72 72 72 72 73 73 73 72 72 72 72 72 72 72 71 71 70 69 69 68 68 67 67 67 67 66 62 60 61 62 64 65
48 48 48 48 49 51 53 54 54 56 57 58 60 61 61 62 63 64 64 65 66 67 68 69 70 70 71 71 72 72 72 72 72 72 72 73 73 73 73 72 72 72 72 72 72 72 71 71 70 69 69 68 68 67 67 67 63 60 60 60 61 63 65
48 49 48 48 49 52 52 52 53 55 56 57 60 61 61 62 63 64 65 65 66 67 68 69 70 70 71 71 72 72 72 72 72 72 72 72 73 73 73 72 72 72 72 72 72 72 71 71 70 70 69 68 68 67 67 67 63 60 59 60 60 61 63
48 47 48 48 50 51 52 53 54 54 56 57 59 61 61 62 63 64 65 65 66 67 67 68 69 70 70 71 72 72 72 73 72 72 72 73 73 72 72 72 72 72 72 72 72 72 71 71 71 70 70 69 68 68 68 67 62 59 58 59 59 60 62
55 55 53 52 52 51 53 54 54 55 56 58 59 60 61 62 63 64 65 66 66 67 67 68 68 69 70 71 72 72 72 73 72 72 72 72 72 72 72 72 72 72 72 71 71 71 71 71 71 71 70 70 69 69 68 68 62 58 57 57 58 59 60
60 52 56 55 53 53 53 53 54 54 56 58 60 60 60 61 62 63 64 66 66 66 66 67 68 68 69 70 71 72 72 72 72 72 72 72 72 72 72 72 72 72 72 71 71 71 72 72 71 71 71 70 70 69 69 68 60 58 57 57 57 59 63
65 64 60 57 57 58 60 60 59 59 61 61 60 60 60 61 62 63 64 65 65 66 66 67 67 68 69 69 70 71 72 72 72 72 72 72 72 72 72 72 72 72 72 71 71 71 71 71 71 71 71 71 70 70 69 69 62 57 56 56 56 58 64
66 66 66 67 66 65 62 61 60 60 60 60 61 61 61 61 63 63 64 65 66 66 66 66 66 67 68 69 70 71 72 72 72 72 72 72 72 72 72 72 72 72 72 71 71 70 71 71 71 71 71 71 71 70 70 69 63 56 55 55 56 59 64
66 66 66 66 67 67 67 64 63 62 63 62 61 63 65 66 65 65 65 65 65 66 65 66 66 66 67 68 69 70 71 72 72 72 72 72 72 72 72 72 72 72 72 71 71 71 71 71 71 71 71 71 71 68 69 70 64 55 55 55 55 59 65
65 65 65 66 66 67 67 66 64 64 64 63 63 64 65 66 66 66 65 65 66 66 66 66 66 66 67 68 69 70 71 72 72 72 72 72 72 72 72 72 72 72 72 71 71 71 71 71 71 71 71 71 71 71 70 70 68 59 54 54 55 56 65
64 65 65 65 66 67 67 67 66 64 65 65 66 68 67 67 67 67 66 66 66 66 66 66 67 67 67 68 68 69 70 71 72 72 72 72 72 72 72 72 72 72 72 71 71 71 71 71 71 71 71 71 71 71 70 70 68 59 53 54 54 55 59
65 65 65 65 66 66 67 67 67 67 68 68 69 68 69 69 67 67 67 67 67 67 67 67 67 68 68 68 68 69 70 71 72 72 72 72 72 72 72 72 72 72 72 72 71 71 71 71 70 71 71 71 70 70 70 69 64 61 54 54 54 54 55
64 64 64 64 65 66 67 66 66 66 66 68 68 68 68 69 69 68 68 68 68 68 68 68 69 69 68 68 68 69 69 70 71 71 72 72 72 72 72 72 72 72 72 72 71 71 71 71 71 70 70 69 68 68 68 67 64 59 58 54 53 53 53
64 65 65 65 65 66 67 66 66 66 67 67 67 67 67 68 68 69 69 68 69 69 70 70 70 69 69 68 68 68 69 69 70 71 72 72 72 72 72 72 72 72 72 72 71 71 71 71 70 70 69 67 66 66 66 65 64 59 57 57 53 53 52
64 64 65 65 65 66 66 66 66 66 67 67 67 67 67 67 67 67 69 69 70 70 70 70 70 70 69 68 68 68 68 69 70 71 71 72 72 72 72 72 72 72 72 72 71 71 71 70 69 69 68 66 65 65 65 64 63 61 59 57 54 53 52
64 64 64 65 66 66 66 66 67 66 66 67 67 67 68 68 66 66 66 67 69 70 71 71 70 70 70 69 69 68 68 69 70 70 71 72 72 72 72 72 72 72 72 71 71 70 70 68 68 67 66 65 65 64 64 64 62 61 60 58 56 55 53
64 64 64 64 65 66 65 65 66 66 66 65 65 66 67 68 69 68 67 67 68 70 70 71 72 71 71 70 70 70 69 70 70 71 71 72 72 72 72 72 72 72 71 71 71 70 69 67 67 66 65 64 63 63 64 63 63 61 60 59 58 57 56
63 64 64 65 65 64 64 64 64 64 64 64 64 65 66 67 68 69 68 68 69 69 69 70 71 72 72 72 72 72 72 72 72 72 73 72 73 72 72 72 72 71 71 71 70 70 68 67 66 65 65 63 62 62 63 63 62 61 59 58 57 57 56
63 64 64 64 64 64 64 64 64 64 64 64 64 64 65 66 67 68 68 68 68 67 68 68 68 69 70 71 71 72 72 73 72 73 73 73 72 71 72 72 72 72 69 65 67 69 68 67 67 66 65 63 62 62 61 61 61 61 56 58 55 56 57
63 63 64 64 64 64 64 65 65 65 65 65 65 65 65 66 66 67 67 67 68 68 68 68 68 68 68 68 69 70 71 72 73 73 72 70 60 56 53 52 54 65 68 63 61 62 61 61 66 66 65 64 64 63 62 61 62 54 51 50 49 50 51
61 62 63 65 65 65 65 65 65 65 65 65 66 66 66 66 67 67 67 66 66 67 67 66 67 67 67 67 67 66 68 71 72 72 71 65 62 61 58 55 49 44 47 51 55 56 55 54 55 57 60 63 62 57 53 55 51 49 48 47 47 47 47
58 60 61 61 61 62 62 63 63 63 64 64 65 65 66 67 67 66 67 66 65 65 64 64 65 64 64 65 64 63 63 64 66 69 67 64 63 62 61 58 54 50 43 47 48 47 47 48 49 51 53 55 57 57 56 50 47 46 46 46 46 46 46